Location: Newark
(54.3386°S, 169.8415°W)
Time: 10:48:18
(UTC+00:00)

Explorer 7 - Visible Passes

Search period start: 23 October 2019 00:00
Search period end: 02 November 2019 00:00
Orbit: 485 x 680 km, 50.3° (Epoch: 22 October)

Date Brightness Start Highest point End Pass type
(mag) Time Alt. Az. Time Alt. Az. Time Alt. Az.
23 Oct 9.1 11:14:23 19° E 11:14:23 19° E 11:15:47 10° E visible
23 Oct 7.3 12:50:41 49° NW 12:51:23 53° N 12:56:07 10° ENE visible
23 Oct 7.9 14:27:09 10° W 14:31:32 32° NNW 14:35:45 10° NE visible
24 Oct 8.9 11:19:04 21° ENE 11:19:04 21° ENE 11:20:45 10° E visible
24 Oct 7.4 12:55:22 43° NW 12:56:17 50° N 13:00:58 10° ENE visible
24 Oct 8.2 14:32:14 10° W 14:36:18 26° NNW 14:40:14 10° NNE visible
25 Oct 8.9 11:23:58 21° ENE 11:23:58 21° ENE 11:25:41 10° E visible
25 Oct 7.5 13:00:18 40° NW 13:01:10 44° NNW 13:05:46 10° NE visible
25 Oct 8.5 14:37:28 10° W 14:41:02 20° NW 14:44:29 10° N visible
26 Oct 8.9 08:02:27 10° N 08:03:56 15° NNE 08:03:56 15° NNE visible
26 Oct 9.1 11:29:24 17° ENE 11:29:24 17° ENE 11:30:36 10° ENE visible
26 Oct 7.7 13:05:48 37° NNW 13:06:00 37° NNW 13:10:28 10° NE visible
26 Oct 8.8 14:42:57 10° WNW 14:45:41 15° NW 14:48:22 10° N visible
27 Oct 8.3 08:06:33 10° NNW 08:10:24 23° NNE 08:12:04 20° ENE visible
27 Oct 8.1 09:45:37 10° WNW 09:48:35 32° NW 09:48:35 32° NW visible
27 Oct9.911:35:58ENE11:35:58ENE11:25:05Wvisible
27 Oct 8.4 13:12:27 25° N 13:12:27 25° N 13:15:04 10° NNE visible
27 Oct 9.1 14:49:27 10° WNW 14:50:17 10° NW 14:51:07 10° NW visible
28 Oct 8.0 08:10:55 10° NNW 08:15:08 30° NNE 08:18:50 13° E visible
28 Oct 7.3 09:50:27 10° WNW 09:55:14 52° N 09:55:14 52° N visible
28 Oct 9.3 11:30:47 10° W 11:31:38 15° W 11:31:38 15° W visible
29 Oct 7.8 08:15:29 10° NW 08:19:56 36° NNE 08:24:24 11° E visible
29 Oct 7.3 09:55:20 10° WNW 10:00:10 54° N 10:00:45 51° NNE visible
29 Oct 9.1 11:35:45 10° W 11:37:05 18° W 11:37:05 18° W visible
30 Oct 7.6 08:20:10 10° NW 08:24:46 43° NNE 08:29:22 11° E visible
30 Oct 7.3 10:00:14 10° W 10:05:04 54° N 10:05:42 50° NNE visible
30 Oct 9.1 11:40:45 10° W 11:42:01 17° W 11:42:01 17° W visible
31 Oct 7.5 08:24:57 10° WNW 08:29:39 49° NNE 08:34:05 12° E visible
31 Oct 7.4 10:05:10 10° W 10:09:58 51° N 10:10:23 50° N visible
31 Oct 9.3 11:45:48 10° W 11:46:42 14° W 11:46:42 14° W visible
01 Nov 7.4 08:29:47 10° WNW 08:34:32 53° N 08:38:40 14° E visible
01 Nov 7.5 10:10:06 10° W 10:14:51 46° NNW 10:14:58 46° N visible
01 Nov 9.5 11:50:57 10° W 11:51:16 11° W 11:51:16 11° W visible
